Terug naar catalogus

STARLINK-31106

ActiefCommunicatieVLEO
NORAD 58689·PAYLOAD·🇺🇸 United States

Gelanceerd Dec 29, 2023 vanaf Cape Canaveral Space Force Station

Loading…

Volgende Passages (komende 24 uur)

TLE

VersSource: CelesTrak SupGP

Epoch: Sep 15, 2026, 02:36 UTC

1 58689C 23211Y   26258.10881944  .00020798  00000+0  75327-3 0  2583
2 58689  42.9995  95.5415 0001487 269.3678  94.6464 15.27569447    10

Volg STARLINK-31106 in realtime met AllMySat

Download on the App Store